Location: Milton
(43.5183°N, 79.8775°W)
Time: 09:08:47
(UTC+00:00)

Gurwin Techsat 1B - Pass Details

Date: 17 April 2024
Orbit: 811 x 812 km, 98.9° (Epoch: 29 May)

Event Time Altitude Azimuth Distance (km) Brightness Sun altitude
Rises 08:12:12 0° 22° (NNE) 3,345 12.9 -23.0°
Reaches altitude 10° 08:14:45 10° 31° (NNE) 2,409 12.1 -22.7°
Maximum altitude 08:19:36 35° 97° (E) 1,289 10.0 -22.0°
Enters shadow 08:24:21 10° 162° (SSE) 2,366 10.8 -21.4°
